Weather History for Lille, France

Change the Weather History Date:

Thursday, August 29, 2013

  Actual Average Record
Temperature  
Mean Temperature 66 °F -  
Max Temperature 76 °F 66 °F 80 °F (2005)
Min Temperature 55 °F 51 °F 48 °F (1998)
Growing Degree Days 16 (Base 50)    
Moisture  
Dew Point 53 °F    
Average Humidity 73    
Maximum Humidity 100    
Minimum Humidity 36    
Precipitation  
Precipitation 0.01 in - - ()
Sea Level Pressure  
Sea Level Pressure 30.18 in    
Wind  
Wind Speed 4 mph ()    
Max Wind Speed 10 mph    
Max Gust Speed -    
Visibility 1.3 miles    
Events Fog    
Averages and records for this station are not official NWS values.
T = Trace of Precipitation, MM = Missing Value Source: Averaged Metar Reports

Daily Weather History Graph

Daily Weather History Graph

Search for Another Location

Airport:

Trip Planner

Search our weather history database for the weather conditions in past years. The results will help you decide how hot, cold, wet, or windy it might be!

Date:

Astronomy

Aug. 29, 2013 Rise Set
Actual Time 6:57 AM CEST 8:38 PM CEST
Civil Twilight 6:22 AM CEST 9:13 PM CEST
Nautical Twilight 5:40 AM CEST 9:55 PM CEST
Astronomical Twilight 4:53 AM CEST 10:41 PM CEST
Moon 12:18 AM CEST (8/29) 4:14 PM CEST (8/29)
Length of Visible Light 14h 50m
Length of Day
13h 41m
Last Quarter, 40% of the Moon is Illuminated
Aug 29
Last Quarter
Sep 5
New
Sep 12
First Quarter
Sep 19
Full
Sep 27
Last Quarter

Hourly Weather History & Observations

Time (CEST) Temp. Dew Point Humidity Pressure Visibility Wind Dir Wind Speed Gust Speed Precip Events Conditions
12:00 AM 60.8 °F 57.2 °F 88% 30.18 in 1.9 mi Variable 2.3 mph - N/A   Mist
1:00 AM 57.2 °F 55.4 °F 94% 30.18 in 1.6 mi NW 4.6 mph - N/A   Mist
2:00 AM 56 °F 55 °F 97% 30.20 in 2 mi West 4.6 mph - -   Mist
2:00 AM 57.2 °F 55.4 °F 94% 30.18 in 1.6 mi West 4.6 mph - N/A   Mist
2:30 AM 55.4 °F 55.4 °F 100% 30.18 in 0.0 mi West 5.8 mph - N/A Fog Fog
3:00 AM 55.4 °F 55.4 °F 100% 30.18 in 0.0 mi WNW 3.5 mph - N/A Fog Fog
3:30 AM 57.2 °F 55.4 °F 94% 30.18 in 0.0 mi WNW 3.5 mph - N/A Fog Fog
4:00 AM 57.2 °F 55.4 °F 94% 30.18 in 0.1 mi WNW 5.8 mph - N/A Fog Fog
4:30 AM 57.2 °F 55.4 °F 94% 30.18 in 0.1 mi WNW 3.5 mph - N/A Fog Fog
5:00 AM 57.2 °F 55.4 °F 94% 30.18 in 0.1 mi Calm Calm - N/A Fog Fog
6:00 AM 57.2 °F 55.4 °F 94% 30.18 in 0.1 mi WNW 3.5 mph - N/A Fog Fog
6:30 AM 57.2 °F 55.4 °F 94% 30.18 in 0.1 mi Variable 2.3 mph - N/A Fog Fog
7:00 AM 57.2 °F 55.4 °F 94% 30.18 in 0.1 mi West 3.5 mph - N/A Fog Fog
7:30 AM 55.4 °F 55.4 °F 100% 30.18 in 0.1 mi West 2.3 mph - N/A Fog Fog
8:00 AM 56 °F 55 °F 96% 30.21 in 0 mi WNW 3.5 mph - - Fog Heavy Fog
8:00 AM 55.4 °F 55.4 °F 100% 30.18 in 0.1 mi Variable 3.5 mph - N/A Fog Fog
8:30 AM 55.4 °F 55.4 °F 100% 30.18 in 0.1 mi Variable 2.3 mph - N/A Fog Fog
9:00 AM 55.4 °F 55.4 °F 100% 30.18 in 0.1 mi Calm Calm - N/A Fog Fog
9:30 AM 57.2 °F 57.2 °F 100% 30.21 in 0.1 mi Variable 1.2 mph - N/A Fog Fog
10:00 AM 57.2 °F 57.2 °F 100% 30.21 in 0.1 mi Variable 2.3 mph - N/A Fog Fog
10:30 AM 59.0 °F 59.0 °F 100% 30.21 in 0.9 mi Calm Calm - N/A   Overcast
11:00 AM 59.0 °F 59.0 °F 100% 30.21 in 2.8 mi Variable 3.5 mph - N/A   Mostly Cloudy
11:30 AM 60.8 °F 59.0 °F 94% 30.21 in 3.7 mi Variable 2.3 mph - N/A   Unknown
12:00 PM 64.4 °F 55.4 °F 73% 30.21 in - Variable 2.3 mph - N/A   Clear
12:30 PM 66.2 °F 55.4 °F 68% 30.21 in - Variable 1.2 mph - N/A   Clear
1:09 PM 69.8 °F 50.0 °F 49% 30.21 in - Variable 3.5 mph - N/A   Clear
1:30 PM 71.6 °F 48.2 °F 43% 30.18 in 6.2 mi West 3.5 mph - N/A   Mostly Cloudy
2:00 PM 72 °F 51 °F 36% 30.20 in 25 mi WSW 3.5 mph - -   Partly Cloudy
2:00 PM 71.6 °F 51.8 °F 50% 30.18 in 6.2 mi Variable 3.5 mph - N/A   Mostly Cloudy
2:30 PM 73.4 °F 51.8 °F 47% 30.18 in 6.2 mi West 5.8 mph - N/A   Mostly Cloudy
3:00 PM 73.4 °F 50.0 °F 44% 30.18 in - SSW 6.9 mph - N/A   Clear
3:30 PM 75.2 °F 50.0 °F 41% 30.15 in - Variable 4.6 mph - N/A   Clear
4:00 PM 73.4 °F 50.0 °F 44% 30.15 in - West 8.1 mph - N/A   Clear
4:30 PM 75.2 °F 48.2 °F 38% 30.15 in - SSW 5.8 mph - N/A   Clear
5:00 PM 75.2 °F 48.2 °F 38% 30.15 in - WNW 6.9 mph - N/A   Clear
5:30 PM 75.2 °F 48.2 °F 38% 30.15 in - West 8.1 mph - N/A   Clear
6:00 PM 75.2 °F 48.2 °F 38% 30.15 in - WSW 5.8 mph - N/A   Clear
6:30 PM 75.2 °F 48.2 °F 38% 30.15 in - WNW 8.1 mph - N/A   Clear
7:00 PM 73.4 °F 50.0 °F 44% 30.15 in - WNW 8.1 mph - N/A   Clear
7:30 PM 73.4 °F 51.8 °F 47% 30.15 in - West 10.4 mph - N/A   Clear
8:00 PM 70 °F 52 °F 41% 30.17 in 25 mi West 9.2 mph - -   Clear
8:00 PM 69.8 °F 51.8 °F 53% 30.15 in - West 9.2 mph - N/A   Clear
8:30 PM 68.0 °F 51.8 °F 56% 30.15 in - WNW 9.2 mph - N/A   Clear
9:00 PM 66.2 °F 51.8 °F 60% 30.18 in - WNW 9.2 mph - N/A   Clear
9:30 PM 64.4 °F 53.6 °F 68% 30.18 in - WNW 8.1 mph - N/A   Clear
10:00 PM 62.6 °F 53.6 °F 72% 30.18 in - WNW 5.8 mph - N/A   Clear
10:30 PM 62.6 °F 53.6 °F 72% 30.18 in - West 4.6 mph - N/A   Clear
11:00 PM 60.8 °F 53.6 °F 77% 30.18 in - West 2.3 mph - N/A   Clear
11:30 PM 59.0 °F 53.6 °F 82% 30.18 in - West 3.5 mph - N/A   Clear